GW4420 Weather Reports


time (UTC)temp
F
wind
direction
speed
knots
gust
knots
rain 1hr
in
rain 24hr
in
rain mn
in
humidity
%
barometer
mb
20260504120156 66 325 1.7 6.1 0.00 0.93 0.93 76 1021.9
20260504110624 66 280 0.9 1.7 0.00 0.92 0.92 76 1021.3
20260504110120 66 90 0.0 0.9 0.00 0.92 0.92 75 1021.1
20260504100545 66 81 0.0 0.0 0.00 0.92 0.92 76 1020.8
20260504081939 65 60 0.9 1.7 0.00 0.92 0.92 77 1020.3
20260504081436 65 354 0.9 1.7 0.00 0.92 0.92 77 1020.2
20260504080932 64 87 0.9 1.7 0.00 0.92 0.92 77 1020.2
20260504080428 64 59 0.0 0.9 0.00 0.92 0.92 77 1020.4
20260504070350 65 52 0.9 5.2 0.00 0.88 0.88 81 1020.3
20260504050737 68 345 1.7 2.6 0.00 0.78 0.78 76 1019.9
20260504050235 68 287 0.9 7.0 0.00 0.78 0.78 76 1019.9
20260504045732 68 29 3.5 11.3 0.00 0.78 0.78 76 1020.2
20260504045227 68 91 3.5 5.2 0.00 0.78 0.78 77 1019.8
20260504044725 67 66 0.9 7.8 0.00 0.78 0.78 78 1020.1
20260504044222 67 333 1.7 5.2 0.00 0.78 0.78 78 1020.4
20260504043719 67 9 2.6 6.1 0.00 0.78 0.78 78 1020.2
20260504043215 67 347 3.5 7.0 0.00 0.78 0.78 77 1020.3
20260504042713 67 93 2.6 3.5 0.00 0.78 0.78 78 1020.5
20260504042210 68 26 3.5 3.5 0.00 0.78 0.78 79 1020.4
20260504041706 68 268 1.7 3.5 0.00 0.78 0.78 80 1020.4
20260504041201 68 51 0.0 3.5 0.00 0.78 0.78 81 1020.7
20260504040658 69 296 4.3 7.0 0.00 0.78 0.78 81 1020.6
20260504040155 69 43 0.9 0.9 0.00 0.78 0.78 83 1020.6
20260504035652 69 298 1.7 3.5 0.00 0.78 0.78 83 1020.7
20260504035149 69 98 0.9 2.6 0.00 0.78 0.78 83 1020.6
20260504034647 69 317 1.7 1.7 0.05 0.78 0.78 82 1020.9
20260504034143 69 128 0.9 3.5 0.05 0.78 0.78 82 1020.8
20260504033641 69 95 0.9 3.5 0.00 0.77 0.77 82 1020.9
20260504033138 69 359 0.9 0.9 0.00 0.77 0.77 83 1021.1
20260504032635 68 79 0.9 5.2 0.00 0.77 0.77 83 1021.1
20260504032132 68 273 1.7 3.5 0.00 0.77 0.77 84 1021.0
20260504031629 68 121 0.0 3.5 0.00 0.77 0.77 84 1021.2
20260504031125 68 43 0.0 2.6 0.00 0.77 0.77 85 1021.0
20260504030622 68 219 0.9 2.6 0.00 0.77 0.77 85 1021.1
20260504030119 68 156 2.6 5.2 0.00 0.77 0.77 85 1021.0
20260504025616 68 356 1.7 3.5 0.00 0.77 0.77 85 1020.8
20260504025113 68 84 0.0 2.6 0.00 0.77 0.77 85 1020.7
20260504024610 67 318 1.7 7.0 0.00 0.77 0.77 85 1020.7
20260504024107 67 216 2.6 7.0 0.00 0.77 0.77 87 1020.4
20260504023603 67 285 1.7 2.6 0.00 0.77 0.77 89 1020.6
20260504023059 67 77 0.0 0.9 0.00 0.77 0.77 89 1020.8
20260504022555 66 108 0.0 2.6 0.00 0.77 0.77 88 1020.8
20260504022051 66 349 0.9 2.6 0.07 0.77 0.77 88 1020.5
20260504021549 66 251 1.7 3.5 0.12 0.77 0.77 87 1020.3
20260504021046 66 61 2.6 5.2 0.05 0.76 0.76 87 1020.4
20260504020543 66 76 0.9 2.6 0.07 0.75 0.75 86 1020.5
20260504020039 66 260 1.7 1.7 0.07 0.75 0.75 86 1020.6
20260504015536 65 288 0.9 5.2 0.05 0.74 0.74 85 1020.6
20260504015032 65 301 3.5 8.7 0.17 0.74 0.74 84 1020.5
20260504014528 66 284 0.0 1.7 0.19 0.73 0.73 85 1020.8
20260504014025 66 345 3.5 7.0 0.19 0.71 0.71 84 1020.9
20260504013523 66 9 1.7 3.5 0.19 0.70 0.70 84 1021.2
20260504013020 66 273 0.9 3.5 0.19 0.68 0.68 83 1021.2
20260504012517 67 30 0.9 2.6 0.17 0.67 0.67 82 1021.6
20260504012015 67 57 0.9 2.6 0.00 0.64 0.64 82 1021.5
20260504011511 68 330 2.6 6.1 0.00 0.64 0.64 81 1021.4
20260504011007 68 343 1.7 2.6 0.00 0.64 0.64 80 1021.2
20260504010503 68 302 0.9 5.2 0.00 0.64 0.64 80 1020.9
20260504005959 69 294 1.7 6.1 0.00 0.64 0.64 80 1020.9
20260504005456 69 301 3.5 13.0 0.00 0.64 0.64 80 1020.7
20260504004954 69 42 4.3 12.2 0.00 0.64 0.64 79 1021.0
20260504004451 69 207 3.5 11.3 0.00 0.64 0.64 79 1020.8
20260504003948 69 316 9.6 13.9 0.07 0.64 0.64 79 1020.5
20260504003444 70 308 7.0 12.2 0.07 0.64 0.64 76 1020.5
20260504002941 70 303 2.6 6.1 0.00 0.63 0.63 77 1020.5
20260504002438 70 91 0.0 2.6 0.00 0.63 0.63 78 1020.3
20260504001936 70 301 2.6 5.2 0.00 0.63 0.63 79 1020.2
20260504001433 70 3 0.9 7.0 0.00 0.63 0.63 79 1019.9
20260504000929 70 291 5.2 7.8 0.00 0.63 0.63 78 1020.1
20260504000427 70 9 5.2 8.7 0.00 0.63 0.63 77 1020.2
20260503235924 71 335 0.0 7.8 0.00 0.63 0.63 77 1019.6
20260503235422 70 312 3.5 7.0 0.00 0.63 0.63 77 1019.4
20260503234919 70 358 2.6 5.2 0.00 0.63 0.63 77 1019.5
20260503234416 70 76 0.9 3.5 0.00 0.63 0.63 77 1019.9
20260503233914 70 107 0.0 3.5 0.00 0.63 0.63 77 1019.8
20260503233410 70 294 3.5 6.1 0.00 0.63 0.63 77 1019.7
20260503232907 70 32 1.7 3.5 0.00 0.63 0.63 78 1019.8
20260503232404 70 45 0.9 7.8 0.00 0.63 0.63 79 1019.6
20260503231902 70 266 2.6 3.5 0.00 0.63 0.63 81 1019.6
20260503231359 70 298 4.3 6.1 0.00 0.63 0.63 81 1019.6
20260503230855 70 268 1.7 3.5 0.00 0.63 0.63 82 1019.3
20260503230352 70 125 0.9 1.7 0.00 0.63 0.63 83 1019.2
20260503225850 70 266 0.9 2.6 0.00 0.63 0.63 83 1019.2
20260503225345 70 285 1.7 2.6 0.00 0.63 0.63 83 1019.1
20260503224842 70 275 2.6 6.1 0.00 0.63 0.63 83 1019.1
20260503224339 69 179 0.9 3.5 0.00 0.63 0.63 84 1019.3
20260503223837 69 87 0.0 2.6 0.00 0.63 0.63 84 1019.4
20260503223334 69 103 0.0 2.6 0.00 0.63 0.63 84 1019.4
20260503222830 69 241 3.5 7.0 0.00 0.63 0.63 85 1019.1
20260503222328 69 300 0.9 1.7 0.00 0.63 0.63 86 1018.8
20260503221826 69 109 0.9 2.6 0.00 0.63 0.63 87 1018.8
20260503221325 69 143 0.9 1.7 0.00 0.63 0.63 87 1018.3
20260503220820 68 106 0.9 2.6 0.00 0.63 0.63 87 1018.1
20260503220317 68 209 0.9 1.7 0.00 0.63 0.63 88 1017.7
20260503215814 68 262 1.7 5.2 0.00 0.63 0.63 88 1017.7
20260503215311 68 102 0.0 1.7 0.00 0.63 0.63 89 1017.7
20260503214809 68 307 0.9 1.7 0.00 0.63 0.63 89 1017.6
20260503214301 68 288 1.7 1.7 0.00 0.63 0.63 89 1017.6
20260503213758 68 104 0.0 0.9 0.00 0.63 0.63 89 1017.8
20260503213255 68 82 0.9 2.6 0.00 0.63 0.63 89 1017.4
20260503212752 67 263 0.0 3.5 0.00 0.63 0.63 89 1017.3
20260503212250 67 287 1.7 6.1 0.00 0.63 0.63 90 1017.4
20260503211747 67 244 1.7 5.2 0.00 0.63 0.63 91 1017.5
20260503211243 67 310 1.7 2.6 0.00 0.63 0.63 92 1017.5
20260503210739 68 275 0.9 1.7 0.00 0.63 0.63 92 1017.9
20260503210237 68 121 0.0 0.0 0.00 0.63 0.63 92 1017.9
20260503205732 68 100 0.0 0.0 0.00 0.63 0.63 92 1017.9
20260503205228 68 111 0.0 0.0 0.00 0.63 0.63 92 1017.8
20260503204724 68 117 0.0 0.0 0.00 0.63 0.63 92 1017.7
20260503204223 67 88 0.0 0.0 0.00 0.63 0.63 92 1017.7
20260503203720 67 99 0.0 0.9 0.00 0.63 0.63 91 1017.4
20260503203217 68 98 0.0 0.9 0.00 0.63 0.63 91 1017.2
20260503202714 68 150 0.0 1.7 0.00 0.63 0.63 91 1016.8
20260503202212 68 84 1.7 3.5 0.00 0.63 0.63 91 1016.5
20260503201710 68 181 0.9 1.7 0.05 0.63 0.63 92 1016.7
20260503201207 68 96 0.0 1.7 0.05 0.63 0.63 91 1016.6
20260503200703 68 83 0.0 3.5 0.00 0.62 0.62 91 1016.6
20260503200159 68 175 0.0 1.7 0.00 0.62 0.62 92 1016.7
20260503195656 68 320 1.7 2.6 0.00 0.62 0.62 92 1017.0
20260503195153 68 282 3.5 3.5 0.00 0.62 0.62 92 1016.8
20260503194650 68 339 1.7 2.6 0.00 0.62 0.62 92 1017.1
20260503194146 68 286 0.0 2.6 0.00 0.62 0.62 93 1017.3
20260503193643 68 325 0.9 2.6 0.00 0.62 0.62 93 1017.4
20260503193138 68 44 0.0 0.0 0.00 0.62 0.62 93 1017.4
20260503192634 68 140 0.0 0.0 0.00 0.62 0.62 93 1017.4
20260503192130 68 106 0.0 0.9 0.00 0.62 0.62 93 1017.1
20260503191627 68 97 0.0 0.9 0.00 0.62 0.62 93 1017.2
20260503191124 68 108 0.0 0.9 0.00 0.62 0.62 93 1016.9
20260503190621 68 1 0.9 3.5 0.00 0.62 0.62 93 1016.3
20260503190117 68 352 1.7 5.2 0.00 0.62 0.62 93 1016.0
20260503185614 68 78 0.9 3.5 0.00 0.62 0.62 93 1015.9
20260503185114 68 118 0.9 2.6 0.00 0.62 0.62 94 1016.3
20260503184609 68 306 1.7 2.6 0.00 0.62 0.62 94 1016.4
20260503184106 68 86 0.9 3.5 0.00 0.62 0.62 94 1016.3
20260503183603 68 98 0.0 2.6 0.00 0.62 0.62 94 1016.3
20260503183100 68 171 0.9 0.9 0.00 0.62 0.62 94 1016.7
20260503182558 68 74 0.0 0.9 0.00 0.62 0.62 94 1016.8
20260503182056 68 293 0.9 1.7 0.00 0.62 0.62 94 1016.7
20260503181553 68 98 0.0 0.0 0.00 0.62 0.62 94 1016.5
20260503181049 68 107 0.0 0.9 0.00 0.62 0.62 94 1016.6
20260503180546 68 108 0.9 5.2 0.00 0.62 0.62 94 1016.4
20260503180044 68 315 1.7 1.7 0.00 0.62 0.62 94 1016.6
20260503175541 68 88 0.0 0.9 0.00 0.62 0.62 94 1016.6
20260503175038 68 332 3.5 3.5 0.00 0.62 0.62 94 1016.5
20260503174535 68 213 2.6 3.5 0.07 0.62 0.62 94 1016.1
20260503174031 68 107 0.9 3.5 0.07 0.62 0.62 94 1016.4
20260503173526 68 159 0.9 2.6 0.00 0.61 0.61 94 1016.6
20260503173023 68 105 0.0 0.9 0.00 0.61 0.61 94 1017.0
20260503172521 69 295 0.9 1.7 0.05 0.61 0.61 94 1017.1
20260503172018 69 109 0.0 1.7 0.05 0.61 0.61 94 1016.7
20260503171514 69 226 0.0 3.5 0.00 0.60 0.60 94 1016.1
20260503171012 69 286 2.6 7.8 0.07 0.60 0.60 94 1015.2
20260503170508 69 341 4.3 7.0 0.12 0.59 0.59 94 1015.3
20260503150900 74 294 2.6 9.6 0.19 0.03 0.03 90 1016.5
20260503150356 74 129 0.0 0.9 0.07 0.01 0.01 90 1016.4
20260503131250 79 145 6.1 7.8 0.00 0.00 0.00 83 1015.3
20260503130748 79 38 0.9 3.5 0.00 0.00 0.00 83 1015.4
20260503130245 79 97 1.7 2.6 0.00 0.00 0.00 83 1015.4